Location: Unspecified
(43.3830°N, 0.0000°E)
Time: 01:12:14
(UTC+00:00)

Explorer 7 - Pass Details

Date: 27 June 2019
Orbit: 485 x 680 km, 50.3° (Epoch: 22 July)

Event Time Altitude Azimuth Distance (km) Brightness Sun altitude
Rises 14:07:08 0° 289° (WNW) 2,956 10.9 57.6°
Reaches altitude 10° 14:10:05 10° 270° (W) 2,071 10.4 57.1°
Maximum altitude 14:13:16 18° 228° (SW) 1,634 10.1 56.6°
Drops below altitude 10° 14:16:29 10° 187° (S) 2,101 10.2 56.0°
Sets 14:19:31 0° 168° (SSE) 3,018 10.7 55.5°
